Location: Dallas
(32.7833°N, 96.8000°W)
Time: 21:47:30
(UTC-06:00)

Envisat - Pass Details

Date: 11 December 2021
Orbit: 764 x 766 km, 98.2° (Epoch: 23 January)

Event Time Altitude Azimuth Distance (km) Brightness Sun altitude
Rises 18:06:08 0° 217° (SW) 3,218 7.3 -9.4°
Reaches altitude 10° 18:10:24 10° 252° (WSW) 2,298 7.1 -10.2°
Maximum altitude 18:11:47 11° 268° (W) 2,228 6.7 -10.5°
Drops below altitude 10° 18:13:10 10° 284° (WNW) 2,302 6.4 -10.7°
Sets 18:17:29 0° 320° (NW) 3,235 6.5 -11.6°
